KTYS Airport (Mc Ghee Tyson) Information

FAA: TYS - ICAO: KTYS

KTYS Airport Location

State Tennessee
County Blount
City Knoxville
KTYS Airport is 10 miles south of Knoxville, TN.
Latitude 35-48-33.7459N
Longitude 083-59-43.1572W
Elevation 979ft

KTYS Airport METARs

METAR KTYS 071853Z 22009KT 5SM -RA BR OVC006 18/17 A3019 RMK AO2 SLP219 P0002 T01780172 $
Altimeter 30.19"
Temperature 17.8°C (64.0°F)
Wind 220° at 9KT
Clouds overcast at 600ft
Visibility 5.0mi
Time observed: 2022-12-07T18:53:00Z

KTYS Airport Details

Status Operational
Activation January 1970
Ownership Public
Usage Public
Chart ATLANTA
ATC on-site Yes
Beacon schedule sunset-sunrise
Beacon color clear green

KTYS Airport Contacts

Owner METRO KNOXVILLE ARPT AUTH
Owner address MC GHEE TYSON AIRPORT, ALCOA, TN 37901
Owner phone 865-342-3000
Manager JAMES FOUNTAIN
Manager address 367 HOSPITAL BLVD., JACKSON, TN 38305
Manager phone (731) 661-2093

KTYS Airport (Mc Ghee Tyson) Radio Frequencies

KTYS (Airport) Radio Frequencies

UNICOM 122.95
Common traffic advisory frequency (CTAF) N/A